This is the latest recevied weather packets stored in our database for station/object IN3MWE-10. If no packets are shown the sender has not sent any weather packets the latest 10 day(s).
| Time | Temp. | Humidity | Pressure | Rain* | Wind** | Luminosity | Snow |
|---|---|---|---|---|---|---|---|
| 1788579314 | 20.56° C | 83% | 981.9 hPa | - | - | - | - |
| 1788578414 | 20.56° C | 80% | 981.7 hPa | - | - | - | - |
| 1788577513 | 20° C | 86% | 981.8 hPa | - | - | - | - |
| 1788576627 | 20.56° C | 84% | 982.1 hPa | - | - | - | - |
| 1788575727 | 21.11° C | 81% | 982 hPa | - | - | - | - |
| 1788574827 | 21.11° C | 79% | 981.9 hPa | - | - | - | - |
| 1788573927 | 21.67° C | 78% | 981.7 hPa | - | - | - | - |
| 1788573027 | 21.67° C | 79% | 981.6 hPa | - | - | - | - |
| 1788572127 | 21.67° C | 75% | 981.6 hPa | - | - | - | - |
| 1788571227 | 21.67° C | 76% | 981.5 hPa | - | - | - | - |
| 1788570326 | 22.78° C | 71% | 981.6 hPa | - | - | - | - |
| 1788569426 | 22.78° C | 69% | 981.5 hPa | - | - | - | - |
| 1788568526 | 22.78° C | 67% | 981.4 hPa | - | - | - | - |
| 1788567626 | 23.33° C | 65% | 981.7 hPa | - | - | - | - |
| 1788566726 | 23.33° C | 65% | 981.6 hPa | - | - | - | - |
| 1788565826 | 23.89° C | 62% | 981.6 hPa | - | - | - | - |
| 1788564926 | 23.89° C | 62% | 981.5 hPa | - | - | - | - |
| 1788564025 | 23.89° C | 61% | 981.5 hPa | - | - | - | - |
| 1788563125 | 23.89° C | 60% | 981.6 hPa | - | - | - | - |
| 1788562225 | 24.44° C | 60% | 981.5 hPa | - | - | - | - |
| 1788561325 | 24.44° C | 58% | 981.6 hPa | - | - | - | - |
| 1788560425 | 24.44° C | 59% | 981.5 hPa | - | - | - | - |
| 1788559525 | 25° C | 59% | 981.6 hPa | - | - | - | - |
| 1788558624 | 25° C | 58% | 981.4 hPa | - | - | - | - |
| 1788557724 | 25° C | 57% | 981.2 hPa | - | - | - | - |
* Rain since midnight (hover to see other rain measurements)
** Current wind speed in m/s (hover to see current wind gust speed)